Time,TemperatureF,DewpointF,PressureIn,WindDirection,WindDirectionDegrees,WindSpeedMPH,WindSpeedGustMPH,Humidity,HourlyPrecipIn,Conditions,Clouds,dailyrainin,SoftwareType,DateUTC
2013-10-17 00:04:00,41.6,38.3,30.51,North,0,0.0,0.0,88,0.00,,,0.00,WUHU216HW,2013-10-17 07:04:00,
2013-10-17 00:29:00,41.6,38.3,30.51,North,0,0.0,0.0,88,0.00,,,0.00,WUHU216HW,2013-10-17 07:29:00,
2013-10-17 00:34:00,41.6,38.3,30.51,North,0,0.0,0.0,88,0.00,,,0.00,WUHU216HW,2013-10-17 07:34:00,
2013-10-17 00:59:00,41.8,38.8,30.52,North,0,0.0,0.0,89,0.00,,,0.00,WUHU216HW,2013-10-17 07:59:00,
2013-10-17 01:04:00,41.8,38.8,30.52,North,0,0.0,0.0,89,0.00,,,0.00,WUHU216HW,2013-10-17 08:04:00,
2013-10-17 01:08:00,41.8,38.8,30.52,North,0,0.0,0.0,89,0.00,,,0.00,WUHU216HW,2013-10-17 08:08:00,
2013-10-17 01:29:00,41.4,38.4,30.52,North,0,0.0,0.0,89,0.00,,,0.00,WUHU216HW,2013-10-17 08:29:00,
2013-10-17 01:34:00,41.4,38.4,30.52,North,0,0.0,0.0,89,0.00,,,0.00,WUHU216HW,2013-10-17 08:34:00,
2013-10-17 01:59:00,41.8,39.1,30.52,North,0,0.0,0.0,90,0.00,,,0.00,WUHU216HW,2013-10-17 08:59:00,
2013-10-17 02:04:00,41.8,39.1,30.52,North,0,0.0,0.0,90,0.00,,,0.00,WUHU216HW,2013-10-17 09:04:00,
2013-10-17 02:29:00,41.2,38.5,30.52,North,0,0.0,0.0,90,0.00,,,0.00,WUHU216HW,2013-10-17 09:29:00,
2013-10-17 02:34:00,41.2,38.5,30.52,North,0,0.0,0.0,90,0.00,,,0.00,WUHU216HW,2013-10-17 09:34:00,
2013-10-17 02:59:00,40.9,38.2,30.52,North,0,0.0,0.0,90,0.00,,,0.00,WUHU216HW,2013-10-17 09:59:00,
2013-10-17 03:04:00,40.9,38.2,30.52,North,0,0.0,0.0,90,0.00,,,0.00,WUHU216HW,2013-10-17 10:04:00,
2013-10-17 03:29:00,40.5,37.8,30.53,North,0,0.0,0.0,90,0.00,,,0.00,WUHU216HW,2013-10-17 10:29:00,
2013-10-17 03:34:00,40.5,37.8,30.53,North,0,0.0,0.0,90,0.00,,,0.00,WUHU216HW,2013-10-17 10:34:00,
2013-10-17 03:59:00,40.0,37.5,30.53,North,0,0.0,0.0,91,0.00,,,0.00,WUHU216HW,2013-10-17 10:59:00,
2013-10-17 04:04:00,40.0,37.5,30.53,North,0,0.0,0.0,91,0.00,,,0.00,WUHU216HW,2013-10-17 11:04:00,
2013-10-17 04:29:00,39.6,37.2,30.54,North,0,0.0,0.0,91,0.00,,,0.00,WUHU216HW,2013-10-17 11:29:00,
2013-10-17 04:34:00,39.6,37.2,30.54,North,0,0.0,0.0,91,0.00,,,0.00,WUHU216HW,2013-10-17 11:34:00,
2013-10-17 04:59:00,39.2,36.8,30.54,North,0,0.0,0.0,91,0.00,,,0.00,WUHU216HW,2013-10-17 11:59:00,
2013-10-17 05:04:00,39.2,36.8,30.54,North,0,0.0,0.0,91,0.00,,,0.00,WUHU216HW,2013-10-17 12:04:00,
2013-10-17 05:09:00,39.2,36.8,30.54,North,0,0.0,0.0,91,0.00,,,0.00,WUHU216HW,2013-10-17 12:09:00,
2013-10-17 05:29:00,39.1,36.9,30.54,North,0,0.0,0.0,92,0.00,,,0.00,WUHU216HW,2013-10-17 12:29:00,
2013-10-17 05:34:00,39.1,36.9,30.54,North,0,0.0,0.0,92,0.00,,,0.00,WUHU216HW,2013-10-17 12:34:00,
2013-10-17 05:59:00,38.9,36.5,30.55,North,0,0.0,0.0,91,0.00,,,0.00,WUHU216HW,2013-10-17 12:59:00,
2013-10-17 06:04:00,38.9,36.5,30.55,North,0,0.0,0.0,91,0.00,,,0.00,WUHU216HW,2013-10-17 13:04:00,
2013-10-17 06:29:00,38.5,36.1,30.55,North,0,0.0,0.0,91,0.00,,,0.00,WUHU216HW,2013-10-17 13:29:00,
2013-10-17 06:34:00,38.5,36.1,30.55,North,0,0.0,0.0,91,0.00,,,0.00,WUHU216HW,2013-10-17 13:34:00,
2013-10-17 06:59:00,38.2,35.7,30.56,North,0,0.0,0.0,91,0.00,,,0.00,WUHU216HW,2013-10-17 13:59:00,
2013-10-17 07:04:00,38.2,35.7,30.56,North,0,0.0,0.0,91,0.00,,,0.00,WUHU216HW,2013-10-17 14:04:00,
2013-10-17 07:29:00,37.8,35.4,30.56,North,0,0.0,0.0,91,0.00,,,0.00,WUHU216HW,2013-10-17 14:29:00,
2013-10-17 07:34:00,37.8,35.4,30.56,North,0,0.0,0.0,91,0.00,,,0.00,WUHU216HW,2013-10-17 14:34:00,
2013-10-17 07:59:00,37.3,34.8,30.56,North,0,0.0,0.0,91,0.00,,,0.00,WUHU216HW,2013-10-17 14:59:00,
2013-10-17 08:04:00,37.3,34.8,30.56,North,0,0.0,0.0,91,0.00,,,0.00,WUHU216HW,2013-10-17 15:04:00,
2013-10-17 08:29:00,36.5,34.1,30.57,North,0,0.0,0.0,91,0.00,,,0.00,WUHU216HW,2013-10-17 15:29:00,
2013-10-17 08:34:00,36.5,34.1,30.57,North,0,0.0,0.0,91,0.00,,,0.00,WUHU216HW,2013-10-17 15:34:00,
2013-10-17 08:59:00,36.0,33.6,30.57,North,0,0.0,0.0,91,0.00,,,0.00,WUHU216HW,2013-10-17 15:59:00,
2013-10-17 09:04:00,36.0,33.6,30.57,North,0,0.0,0.0,91,0.00,,,0.00,WUHU216HW,2013-10-17 16:04:00,
2013-10-17 09:29:00,36.7,34.6,30.57,North,0,0.0,0.0,92,0.00,,,0.00,WUHU216HW,2013-10-17 16:29:00,
2013-10-17 09:34:00,36.7,34.6,30.57,North,0,0.0,0.0,92,0.00,,,0.00,WUHU216HW,2013-10-17 16:34:00,
2013-10-17 09:59:00,38.3,36.2,30.57,North,0,0.0,0.0,92,0.00,,,0.00,WUHU216HW,2013-10-17 16:59:00,
2013-10-17 10:04:00,38.3,36.2,30.57,North,0,0.0,0.0,92,0.00,,,0.00,WUHU216HW,2013-10-17 17:04:00,
2013-10-17 10:29:00,41.2,39.3,30.57,North,0,0.0,0.0,93,0.00,,,0.00,WUHU216HW,2013-10-17 17:29:00,
2013-10-17 10:34:00,41.2,39.3,30.57,North,0,0.0,0.0,93,0.00,,,0.00,WUHU216HW,2013-10-17 17:34:00,
2013-10-17 10:59:00,44.1,42.2,30.56,North,0,0.0,0.0,93,0.00,,,0.00,WUHU216HW,2013-10-17 17:59:00,
2013-10-17 11:04:00,44.1,42.2,30.56,North,0,0.0,0.0,93,0.00,,,0.00,WUHU216HW,2013-10-17 18:04:00,
2013-10-17 11:29:00,46.8,45.2,30.56,North,0,0.0,0.0,94,0.00,,,0.00,WUHU216HW,2013-10-17 18:29:00,
2013-10-17 11:34:00,46.8,45.2,30.56,North,0,0.0,0.0,94,0.00,,,0.00,WUHU216HW,2013-10-17 18:34:00,
2013-10-17 11:59:00,50.6,47.1,30.56,North,0,0.0,0.0,88,0.00,,,0.00,WUHU216HW,2013-10-17 18:59:00,
2013-10-17 12:04:00,50.6,47.1,30.56,North,0,0.0,0.0,88,0.00,,,0.00,WUHU216HW,2013-10-17 19:04:00,
2013-10-17 12:29:00,54.7,48.3,30.55,North,0,0.0,0.0,79,0.00,,,0.00,WUHU216HW,2013-10-17 19:29:00,
2013-10-17 12:31:00,54.7,48.3,30.55,North,0,0.0,0.0,79,0.00,,,0.00,WUHU216HW,2013-10-17 19:31:00,
2013-10-17 12:36:00,54.7,48.3,30.55,North,0,0.0,0.0,79,0.00,,,0.00,WUHU216HW,2013-10-17 19:36:00,
2013-10-17 12:59:00,56.9,48.2,30.54,North,0,0.0,0.0,73,0.00,,,0.00,WUHU216HW,2013-10-17 19:59:00,
2013-10-17 13:04:00,56.9,47.5,30.54,North,0,0.0,0.0,71,0.00,,,0.00,WUHU216HW,2013-10-17 20:04:00,
2013-10-17 13:09:00,56.9,47.5,30.54,North,0,0.0,0.0,71,0.00,,,0.00,WUHU216HW,2013-10-17 20:09:00,
2013-10-17 13:30:00,58.7,48.5,30.53,North,0,0.0,0.0,69,0.00,,,0.00,WUHU216HW,2013-10-17 20:30:00,
2013-10-17 13:35:00,58.7,48.5,30.53,North,0,0.0,0.0,69,0.00,,,0.00,WUHU216HW,2013-10-17 20:35:00,
2013-10-17 13:59:00,60.1,49.1,30.53,North,0,0.0,0.0,67,0.00,,,0.00,WUHU216HW,2013-10-17 20:59:00,
2013-10-17 14:04:00,60.1,49.1,30.53,North,0,0.0,0.0,67,0.00,,,0.00,WUHU216HW,2013-10-17 21:04:00,
2013-10-17 14:29:00,60.3,49.0,30.53,North,0,0.0,0.0,66,0.00,,,0.00,WUHU216HW,2013-10-17 21:29:00,
2013-10-17 14:34:00,60.3,49.0,30.53,North,0,0.0,0.0,66,0.00,,,0.00,WUHU216HW,2013-10-17 21:34:00,
2013-10-17 14:59:00,60.3,48.5,30.53,North,0,0.0,0.0,65,0.00,,,0.00,WUHU216HW,2013-10-17 21:59:00,
2013-10-17 15:04:00,60.3,48.5,30.53,North,0,0.0,0.0,65,0.00,,,0.00,WUHU216HW,2013-10-17 22:04:00,
2013-10-17 15:29:00,60.1,48.3,30.53,North,0,0.0,0.0,65,0.00,,,0.00,WUHU216HW,2013-10-17 22:29:00,
2013-10-17 15:34:00,60.1,48.3,30.53,North,0,0.0,0.0,65,0.00,,,0.00,WUHU216HW,2013-10-17 22:34:00,
2013-10-17 15:59:00,59.9,49.0,30.52,North,0,0.0,0.0,67,0.00,,,0.00,WUHU216HW,2013-10-17 22:59:00,
2013-10-17 16:04:00,59.9,49.0,30.52,North,0,0.0,0.0,67,0.00,,,0.00,WUHU216HW,2013-10-17 23:04:00,
2013-10-17 16:09:00,59.9,49.0,30.52,North,0,0.0,0.0,67,0.00,,,0.00,WUHU216HW,2013-10-17 23:09:00,
2013-10-17 16:30:00,59.2,49.5,30.52,North,0,0.0,0.0,70,0.00,,,0.00,WUHU216HW,2013-10-17 23:30:00,
2013-10-17 16:35:00,59.2,49.5,30.52,North,0,0.0,0.0,70,0.00,,,0.00,WUHU216HW,2013-10-17 23:35:00,
2013-10-17 17:00:00,57.6,49.3,30.52,North,0,0.0,0.0,74,0.00,,,0.00,WUHU216HW,2013-10-18 00:00:00,
2013-10-17 17:05:00,57.6,49.3,30.52,North,0,0.0,0.0,74,0.00,,,0.00,WUHU216HW,2013-10-18 00:05:00,
2013-10-17 17:30:00,55.3,48.2,30.52,North,0,0.0,0.0,77,0.00,,,0.00,WUHU216HW,2013-10-18 00:30:00,
2013-10-17 17:35:00,55.3,48.2,30.52,North,0,0.0,0.0,77,0.00,,,0.00,WUHU216HW,2013-10-18 00:35:00,
2013-10-17 18:00:00,53.6,47.3,30.52,North,0,0.0,0.0,79,0.00,,,0.00,WUHU216HW,2013-10-18 01:00:00,
2013-10-17 18:05:00,53.6,47.3,30.52,North,0,0.0,0.0,79,0.00,,,0.00,WUHU216HW,2013-10-18 01:05:00,
2013-10-17 18:30:00,51.7,46.0,30.53,North,0,0.0,0.0,81,0.00,,,0.00,WUHU216HW,2013-10-18 01:30:00,
2013-10-17 18:35:00,51.7,46.0,30.53,North,0,0.0,0.0,81,0.00,,,0.00,WUHU216HW,2013-10-18 01:35:00,
2013-10-17 19:00:00,50.4,45.1,30.53,North,0,0.0,0.0,82,0.00,,,0.00,WUHU216HW,2013-10-18 02:00:00,
2013-10-17 19:05:00,50.4,45.1,30.53,North,0,0.0,0.0,82,0.00,,,0.00,WUHU216HW,2013-10-18 02:05:00,
2013-10-17 19:30:00,48.6,43.7,30.53,North,0,0.0,0.0,83,0.00,,,0.00,WUHU216HW,2013-10-18 02:30:00,
2013-10-17 19:35:00,48.6,43.7,30.53,North,0,0.0,0.0,83,0.00,,,0.00,WUHU216HW,2013-10-18 02:35:00,
2013-10-17 20:00:00,47.7,43.1,30.53,North,0,0.0,0.0,84,0.00,,,0.00,WUHU216HW,2013-10-18 03:00:00,
2013-10-17 20:05:00,47.7,43.1,30.53,North,0,0.0,0.0,84,0.00,,,0.00,WUHU216HW,2013-10-18 03:05:00,
2013-10-17 20:30:00,46.4,42.2,30.54,North,0,0.0,0.0,85,0.00,,,0.00,WUHU216HW,2013-10-18 03:30:00,
2013-10-17 20:35:00,46.4,42.2,30.54,North,0,0.0,0.0,85,0.00,,,0.00,WUHU216HW,2013-10-18 03:35:00,
2013-10-17 21:00:00,45.0,41.0,30.54,North,0,0.0,0.0,86,0.00,,,0.00,WUHU216HW,2013-10-18 04:00:00,
2013-10-17 21:01:00,45.0,41.0,30.54,North,0,0.0,0.0,86,0.00,,,0.00,WUHU216HW,2013-10-18 04:01:00,
2013-10-17 21:06:00,45.0,41.0,30.54,North,0,0.0,0.0,86,0.00,,,0.00,WUHU216HW,2013-10-18 04:06:00,
2013-10-17 21:30:00,44.3,40.7,30.54,North,0,0.0,0.0,87,0.00,,,0.00,WUHU216HW,2013-10-18 04:30:00,
2013-10-17 21:35:00,44.3,40.7,30.54,North,0,0.0,0.0,87,0.00,,,0.00,WUHU216HW,2013-10-18 04:35:00,
2013-10-17 22:00:00,42.8,39.3,30.54,North,0,0.0,0.0,87,0.00,,,0.00,WUHU216HW,2013-10-18 05:00:00,
2013-10-17 22:05:00,42.8,39.3,30.54,North,0,0.0,0.0,87,0.00,,,0.00,WUHU216HW,2013-10-18 05:05:00,
2013-10-17 22:30:00,42.1,38.5,30.54,North,0,0.0,0.0,87,0.00,,,0.00,WUHU216HW,2013-10-18 05:30:00,
2013-10-17 22:35:00,42.1,38.5,30.54,North,0,0.0,0.0,87,0.00,,,0.00,WUHU216HW,2013-10-18 05:35:00,
2013-10-17 23:00:00,41.4,38.1,30.55,North,0,0.0,0.0,88,0.00,,,0.00,WUHU216HW,2013-10-18 06:00:00,
2013-10-17 23:05:00,41.4,38.1,30.55,North,0,0.0,0.0,88,0.00,,,0.00,WUHU216HW,2013-10-18 06:05:00,
2013-10-17 23:30:00,40.3,37.0,30.55,North,0,0.0,0.0,88,0.00,,,0.00,WUHU216HW,2013-10-18 06:30:00,
2013-10-17 23:35:00,40.3,37.0,30.55,North,0,0.0,0.0,88,0.00,,,0.00,WUHU216HW,2013-10-18 06:35:00,